[[{"header":{"parameterUnit":"m.s-1","parameterCategory":1,"la1":30.2991,"la2":30.254,"lo1":-89.0895,"lo2":-89.0444,"dy":0.0017,"dx":0.0017,"nx":28,"ny":28,"refTime":"2024-07-10T21:00:00:Z","depth":0,"parameterNumber":2,"parameterNumberName":"U-component_of_WINDS"},"data":[0,0,0,0,0,0,0,0,0,0,0,0,0,0,0,0,0,0,0,0,0,0,0,0,0,0,0,0,0,0,0,0,0,0,0,0,0,0,0,0,0,0,0,0,0,0,0,0,0,0,0,0,0,0,0,0,0,0,2.775,2.7751,0,2.7842,2.7843,2.7844,2.785,2.7849,2.7848,2.7847,2.794,2.7943,2.7946,0,0,0,0,0,0,0,0,0,0,0,0,0,2.7578,2.7581,2.775,2.7751,2.7753,2.7842,2.7843,2.7845,2.7851,2.7849,2.7848,2.7847,2.7939,2.7943,2.7947,0,0,0,0,0,0,0,0,0,0,0,0,0,2.7659,2.7582,2.775,2.7766,2.7769,2.7842,2.7843,2.7845,2.7851,2.7849,2.7848,2.7846,2.7937,2.7942,2.7947,2.801,0,0,2.7963,2.7965,0,0,0,0,0,0,0,0,2.7655,2.7666,2.7763,2.7765,2.7768,2.7833,2.7816,2.79,2.7851,2.782,2.7847,2.7846,2.7905,2.7913,2.7934,2.8014,2.8018,2.7963,2.7967,2.7969,2.797,0,0,0,0,0,0,0,2.7649,2.7662,2.7787,2.7764,2.7768,2.7768,2.7778,2.7832,2.787,2.7822,2.7823,2.7834,2.7907,2.7929,2.7936,2.8019,2.7963,2.7968,2.7971,2.7973,2.8154,2.8156,0,0,0,0,0,0,2.764,2.7657,2.7784,2.7789,2.7707,2.7773,2.7784,2.7814,2.7869,2.7876,2.7835,2.7834,2.7921,2.793,2.7939,2.8015,2.7969,2.7973,2.7976,2.8153,2.8155,2.8156,0,0,0,0,0,0,2.7637,2.7652,2.778,2.7723,2.774,2.7777,2.7811,2.7817,2.7839,2.7879,2.7886,2.7851,2.792,2.7932,2.7992,2.8018,2.7976,2.798,2.815,2.8153,2.8156,2.8167,0,0,0,0,0,0,2.7632,2.765,2.7675,2.7724,2.7743,2.7832,2.7813,2.7819,2.7848,2.7847,2.7896,2.7902,2.792,2.7984,2.7997,2.8024,2.7984,2.8148,2.8152,2.8155,2.8164,2.8169,2.8174,0,0,0,0,0,2.7626,2.7674,2.7676,2.7691,2.7775,2.7833,2.7844,2.7864,2.785,2.7874,2.79,2.7901,2.8013,2.799,2.8005,2.8034,2.8147,2.8151,2.8154,2.8162,2.8168,2.8174,0,0,0,0,0,0,2.7627,2.7681,2.7684,2.775,2.7787,2.7834,2.7866,2.787,2.7911,2.7909,2.7931,2.7942,2.8,2.8024,2.7997,2.8097,2.8078,2.8085,2.8079,2.8085,2.809,2.8083,2.7989,0,0,0,0,0,2.7635,2.7679,2.7724,2.7778,2.7796,2.7828,2.7854,2.7866,2.7905,2.7921,2.7951,2.7988,2.8032,2.806,2.8103,2.8168,2.8178,2.8195,2.82,2.8204,2.8209,2.8243,2.8251,2.8169,2.8169,2.8169,0,0,2.7652,2.7687,2.7713,2.7779,2.7809,2.7853,2.7841,2.7888,2.7921,2.7928,2.7986,2.801,2.8053,2.8115,2.8144,2.8136,2.8234,2.8209,2.8211,2.8215,2.8248,2.8256,2.8263,2.8172,2.8172,2.8171,0,0,2.7705,2.7737,2.7784,2.7815,2.7861,2.7882,2.7893,2.794,2.7956,2.8015,2.802,2.8059,2.8135,2.8165,2.819,2.8254,2.8255,2.8267,2.8292,2.8325,2.8332,2.8337,2.8359,2.8366,2.8273,2.8273,2.8273,0,2.7719,2.7787,2.7808,2.7855,2.7883,2.7892,2.794,2.7969,2.8026,2.8045,2.8035,2.8129,2.8159,2.8228,2.8243,2.8264,2.8277,2.8261,2.8329,2.8335,2.8341,2.8361,2.8369,2.8274,2.8274,2.8274,2.8274,0,2.7802,2.7848,2.7881,2.7937,2.7969,2.8016,2.8044,2.8073,2.8083,2.8104,2.8163,2.82,2.8249,2.8267,2.8276,2.8337,2.833,2.8325,2.8307,2.8349,2.8369,2.8377,2.8275,2.8275,2.8275,2.8274,0,0,2.7857,2.7924,2.7935,2.796,2.8011,2.8047,2.8095,2.8144,2.8168,2.8207,2.8246,2.831,2.8305,2.8334,2.8347,2.8377,2.8423,2.8368,2.8369,2.8375,2.849,2.8492,2.8501,2.8425,2.8427,2.8428,2.8485,0,2.7914,2.7998,2.8019,2.8091,2.8134,2.8143,2.8184,2.822,2.8241,2.828,2.8303,2.8347,2.8339,2.8355,2.8385,2.8411,2.8446,2.8407,2.846,2.8462,2.8447,2.8511,2.8514,2.8566,2.8493,2.8495,2.8496,0,2.7991,2.8032,2.8109,2.8154,2.8173,2.8209,2.8255,2.8293,2.8333,2.8346,2.8378,2.8388,2.8437,2.8417,2.8484,2.8457,2.848,2.8496,2.8498,2.8502,2.848,2.8515,2.8584,2.8591,2.8508,2.8507,2.8506,0,2.8021,2.8096,2.8151,2.8172,2.8227,2.8252,2.8276,2.8315,2.8343,2.8383,2.8401,2.8446,2.847,2.8505,2.8526,2.8511,2.859,2.8573,2.8602,2.8601,2.8616,2.8615,2.8688,2.8634,2.8634,2.8634,2.8634,0,2.8081,2.8127,2.8165,2.8199,2.825,2.8273,2.8323,2.8347,2.8382,2.8419,2.8431,2.8466,2.8493,2.8532,2.8549,2.86,2.8612,2.8623,2.8627,2.8621,2.8619,2.8635,2.8631,2.8636,2.8636,2.8635,2.8635,0,2.8122,2.815,2.821,2.8257,2.827,2.8306,2.8346,2.8378,2.84,2.8448,2.846,2.8494,2.854,2.8566,2.8624,2.8635,2.8692,2.8695,2.8678,2.8679,2.8705,2.8702,2.879,2.8802,2.8742,2.8742,2.8743,0,2.8158,2.8194,2.8245,2.8271,2.8295,2.8338,2.8366,2.8391,2.8419,2.8468,2.8494,2.8541,2.8579,2.8652,2.8682,2.8726,2.8728,2.8756,2.8735,2.8728,2.8726,2.8723,2.8726,2.8759,2.876,2.876,2.876,0,2.8218,2.8229,2.827,2.8316,2.835,2.8387,2.8424,2.8444,2.8475,2.8507,2.8554,2.8584,2.8643,2.8688,2.8735,2.8758,2.8764,2.8767,2.8776,2.8769,2.8757,2.8762,2.8686,2.8765,2.8764,2.8764,2.8764,2.8763,2.8256,2.8287,2.8328,2.8373,2.8403,2.8437,2.847,2.8496,2.8536,2.8586,2.8598,2.8648,2.8687,2.8749,2.8774,2.8813,2.8807,2.882,2.8823,2.8825,2.8825,2.8753,2.8822,2.8821,2.8821,2.8821,2.8821,0,2.8314,2.8341,2.8383,2.8434,2.8469,2.8472,2.8513,2.8542,2.8585,2.8621,2.8659,2.8713,2.8757,2.8791,2.8836,2.886,2.8864,2.8871,2.8868,2.8873,2.8828,2.8816,2.8867,2.8867,2.8867,2.8867,2.8867,2.8867,2.8349,2.8402,2.8419,2.8487,2.8513,2.8562,2.8584,2.8615,2.8644,2.8704,2.8741,2.8763,2.8798,2.8845,2.8886,2.8894,2.891,2.8916,2.8925,2.8882,2.8877,2.8872,2.886,2.892,2.892,2.8966,2.8967,2.8967]},{"header":{"parameterUnit":"m.s-1","parameterCategory":1,"la1":30.2991,"la2":30.254,"lo1":-89.0895,"lo2":-89.0444,"dy":0.0017,"dx":0.0017,"nx":28,"ny":28,"refTime":"2024-07-10T21:00:00:Z","depth":0,"parameterNumber":3,"parameterNumberName":"V-component_of_WINDS"},"data":[0,0,0,0,0,0,0,0,0,0,0,0,0,0,0,0,0,0,0,0,0,0,0,0,0,0,0,0,0,0,0,0,0,0,0,0,0,0,0,0,0,0,0,0,0,0,0,0,0,0,0,0,0,0,0,0,0,0,3.1134,3.1134,0,3.1176,3.1176,3.1176,3.1176,3.1175,3.1174,3.1174,3.1211,3.1213,3.1214,0,0,0,0,0,0,0,0,0,0,0,0,0,3.1048,3.105,3.1134,3.1134,3.1135,3.1175,3.1176,3.1177,3.1176,3.1175,3.1174,3.1174,3.1211,3.1213,3.1215,0,0,0,0,0,0,0,0,0,0,0,0,0,3.1087,3.105,3.1134,3.114,3.114,3.1175,3.1176,3.1177,3.1176,3.1175,3.1174,3.1173,3.121,3.1213,3.1215,3.1245,0,0,3.1222,3.1223,0,0,0,0,0,0,0,0,3.1085,3.109,3.1138,3.1139,3.114,3.117,3.116,3.12,3.1176,3.1162,3.1174,3.1173,3.1198,3.1201,3.1211,3.1247,3.1249,3.1222,3.1223,3.1224,3.1225,0,0,0,0,0,0,0,3.1082,3.1088,3.115,3.1139,3.114,3.1138,3.1143,3.1167,3.1184,3.1163,3.1163,3.1169,3.1198,3.1208,3.1211,3.1249,3.1222,3.1224,3.1225,3.1226,3.1312,3.1313,0,0,0,0,0,0,3.1079,3.1086,3.1149,3.1152,3.111,3.114,3.1146,3.1161,3.1184,3.1187,3.1169,3.1168,3.1205,3.1209,3.1213,3.125,3.1224,3.1226,3.1228,3.1311,3.1312,3.1313,0,0,0,0,0,0,3.1077,3.1085,3.1147,3.1119,3.1127,3.1143,3.116,3.1162,3.1172,3.1188,3.1191,3.1177,3.1204,3.121,3.1237,3.1251,3.1227,3.123,3.131,3.1311,3.1313,3.1324,0,0,0,0,0,0,3.1075,3.1084,3.1097,3.1119,3.1128,3.1173,3.1161,3.1164,3.1177,3.1176,3.1196,3.1199,3.1204,3.1234,3.124,3.1254,3.1231,3.1309,3.131,3.1312,3.1322,3.1325,3.1328,0,0,0,0,0,3.1072,3.1098,3.1098,3.1105,3.1145,3.1174,3.1179,3.1186,3.1178,3.119,3.12,3.1198,3.1249,3.1237,3.1243,3.1258,3.1308,3.131,3.1312,3.1321,3.1325,3.1328,0,0,0,0,0,0,3.1075,3.1101,3.1101,3.1135,3.1153,3.1173,3.1189,3.119,3.1208,3.1207,3.1213,3.1218,3.1246,3.1254,3.1241,3.1288,3.1277,3.128,3.1282,3.1285,3.1288,3.1285,3.1233,0,0,0,0,0,3.108,3.1102,3.1123,3.1151,3.116,3.1173,3.1186,3.119,3.1207,3.1214,3.1226,3.1242,3.1261,3.1274,3.1292,3.1323,3.1327,3.1337,3.1339,3.1342,3.1344,3.1361,3.1365,3.132,3.132,3.132,0,0,3.1089,3.1106,3.112,3.1152,3.1166,3.1188,3.1179,3.1202,3.1218,3.1217,3.1245,3.1254,3.1272,3.1301,3.1315,3.1309,3.1358,3.1344,3.1346,3.1347,3.1363,3.1367,3.1371,3.1321,3.1321,3.1321,0,0,3.1119,3.1134,3.1159,3.1173,3.1195,3.1204,3.121,3.1231,3.1237,3.1266,3.1265,3.1283,3.1316,3.1329,3.134,3.1373,3.1371,3.1379,3.1394,3.1409,3.1413,3.1416,3.1427,3.1431,3.1381,3.1382,3.1382,0,3.1127,3.1162,3.1171,3.1195,3.1209,3.1211,3.1235,3.1248,3.1273,3.1282,3.1276,3.1318,3.133,3.1362,3.137,3.1379,3.1385,3.1376,3.1412,3.1415,3.1418,3.1429,3.1433,3.1382,3.1382,3.1382,3.1382,0,3.1171,3.1195,3.1212,3.1239,3.1255,3.1278,3.129,3.1304,3.1307,3.1315,3.1343,3.1358,3.1379,3.1387,3.139,3.142,3.1416,3.1411,3.1399,3.1423,3.1433,3.1438,3.1383,3.1383,3.1383,3.1383,0,0,3.1203,3.1236,3.1242,3.1254,3.1278,3.1295,3.1318,3.1341,3.1353,3.137,3.1389,3.1417,3.1413,3.1425,3.1429,3.1443,3.1468,3.1436,3.1437,3.1441,3.15,3.1504,3.1508,3.1467,3.1468,3.1468,3.1499,0,3.1234,3.1278,3.1287,3.1324,3.1345,3.1347,3.1367,3.1383,3.1391,3.1409,3.1418,3.1438,3.1431,3.1438,3.1452,3.1462,3.148,3.146,3.1483,3.1483,3.1478,3.1514,3.1517,3.1546,3.1503,3.1504,3.1504,0,3.1277,3.1297,3.1337,3.1358,3.1367,3.1385,3.1406,3.1424,3.1441,3.1446,3.146,3.1462,3.1485,3.1473,3.1503,3.149,3.1499,3.1505,3.1506,3.1508,3.1495,3.1516,3.1555,3.1559,3.1511,3.151,3.151,0,3.1295,3.1332,3.1361,3.1371,3.1396,3.1409,3.142,3.1437,3.145,3.1467,3.1476,3.1495,3.1506,3.152,3.1527,3.1518,3.1557,3.1545,3.156,3.156,3.1568,3.1567,3.1608,3.1575,3.1575,3.1575,3.1575,0,3.1329,3.1353,3.137,3.1387,3.1413,3.1423,3.1448,3.1458,3.1473,3.1491,3.1493,3.151,3.1518,3.1535,3.154,3.1564,3.1569,3.1573,3.1574,3.1572,3.1572,3.1579,3.1577,3.1576,3.1576,3.1576,3.1575,0,3.1354,3.1367,3.1398,3.1419,3.1425,3.1444,3.1461,3.1477,3.1486,3.1509,3.1515,3.1528,3.1548,3.1557,3.1581,3.1585,3.1612,3.1612,3.1607,3.1607,3.1621,3.1619,3.1667,3.1674,3.1637,3.1637,3.1638,0,3.1375,3.1393,3.1417,3.1431,3.1442,3.1463,3.1477,3.1486,3.15,3.1521,3.1534,3.1555,3.1572,3.1605,3.1615,3.1634,3.1634,3.1649,3.1636,3.1634,3.1633,3.1632,3.1633,3.1651,3.1652,3.1652,3.1652,0,3.1409,3.1415,3.1435,3.1458,3.1475,3.1492,3.1509,3.152,3.1531,3.1546,3.1568,3.1582,3.1608,3.1628,3.1647,3.1656,3.1656,3.1656,3.1661,3.1659,3.1655,3.1657,3.1613,3.1655,3.1655,3.1655,3.1654,3.1654,3.1432,3.1449,3.1469,3.1491,3.1506,3.1522,3.1538,3.1549,3.1568,3.1591,3.1595,3.1618,3.1634,3.166,3.167,3.1687,3.1683,3.1689,3.1691,3.1692,3.1693,3.1653,3.1691,3.169,3.169,3.169,3.169,0,3.1467,3.148,3.15,3.1525,3.1543,3.1543,3.1562,3.1576,3.1597,3.1612,3.163,3.1654,3.1674,3.1686,3.1706,3.1717,3.1717,3.1722,3.172,3.1722,3.1696,3.169,3.1721,3.1721,3.1721,3.1721,3.1721,3.1721,3.1486,3.1514,3.1522,3.1556,3.1569,3.1593,3.1604,3.1618,3.1631,3.1659,3.1676,3.1684,3.1698,3.1719,3.1736,3.1739,3.1746,3.175,3.1753,3.1728,3.1724,3.1721,3.1716,3.1752,3.1752,3.1778,3.1779,3.1779]}]]